User: anonymous   Login
Location: Unspecified
(0.0000°N, 0.0000°E)
Time: 22:53:17
(UTC+00:00)
Language:

ZACube-1 - Orbit

View from above orbital plane
View from above orbital plane
View from above satellite
View from above satellite

Ground track
Ground track

The orbit data is extracted from the following two-line orbital elements,

1 39417U 13066B   17113.89570560 +.00000707 +00000-0 +95683-4 0  9992
2 39417 097.6355 158.7539 0060975 087.7708 273.0486 14.80674067184740
Epoch (UTC): 23 April 2017 21:29:48
Eccentricity: 0.0060975
inclination: 97.6355°
perigee height: 584 km
apogee height: 670 km
right ascension of ascending node: 158.7539°
argument of perigee: 87.7708°
revolutions per day: 14.80674067
mean anomaly at epoch: 273.0486°
orbit number at epoch: 18474

The dashed part of the orbit path shows where the satellite is in the earth's shadow,  

DLR